Miscellaneous Local Product
Issued by NWS Hastings, NE

Home | Current Version | Previous Version | Graphics & Text | Print | Product List | Glossary On
Versions: 1 2 3 4 5 6 7 8 9 10 11 12 13 14 15 16 17 18 19 20 21 22 23 24 25 26 27 28 29 30 31 32 33 34 35 36 37 38 39 40 41 42 43 44 45 46 47 48 49 50
000
AXUS43 KGID 210302
MISGRI

GID CWA HOURLY WEATHER ROUNDUP
NATIONAL WEATHER SERVICE HASTINGS NE
1000 PM CDT WED AUG 20 2014

NOTE: "FAIR" INDICATES FEW OR NO CLOUDS BELOW 12,000 FEET WITH NO
SIGNIFICANT WEATHER AND/OR OBSTRUCTIONS TO VISIBILITY.

...SOUTH CENTRAL NEBRASKA...

CITY           SKY/WX    TMP DP  RH WIND       PRES   REMARKS
GRAND ISLAND   PTCLDY    80  71  74 SE9       29.76R
HASTINGS       CLOUDY    83  65  54 S10       29.76R
KEARNEY        CLOUDY    81  70  69 SE12      29.76R
ORD            CLEAR     81  72  74 SE10      29.73R
YORK           CLEAR     81 N/A N/A SE8       29.76S
AURORA         PTCLDY    79  73  82 SE8       29.77R
LEXINGTON      CLOUDY    81  69  67 W9        29.77R
HOLDREGE       CLOUDY    82  66  59 S7        29.77R
HEBRON         PTCLDY    82  68  63 S8        29.77R

...NEBRASKA PANHANDLE...

CITY           SKY/WX    TMP DP  RH WIND       PRES   REMARKS
CHADRON        PTCLDY    77  53  43 NE5       29.80R
ALLIANCE       PTCLDY    75  51  43 SW10      29.86R
SCOTTSBLUFF    MOCLDY    74  55  51 CALM      29.87R
SIDNEY         CLOUDY    73  57  57 W8        29.93R

...WESTERN AND NORTH CENTRAL NEBRASKA...

CITY           SKY/WX    TMP DP  RH WIND       PRES   REMARKS
VALENTINE      PTCLDY    80  64  58 S10       29.73R
AINSWORTH      PTCLDY    78  69  74 SE7       29.75R
ONEILL         PTCLDY    81  74  80 SE5       29.74S
BROKEN BOW     MOCLDY    83  70  64 SW22G30   29.79R THUNDER
IMPERIAL       CLOUDY    71  65  81 E8        29.83F
NORTH PLATTE   CLOUDY    70  60  70 E3        29.77F
MCCOOK         CLOUDY    82  58  43 E3        29.74S

...EASTERN NEBRASKA...

CITY           SKY/WX    TMP DP  RH WIND       PRES   REMARKS
NORFOLK        CLEAR     79  70  74 SE8       29.75R
SO SIOUX CITY  MOCLDY    79  75  87 SE10      29.76S
TEKAMAH        PTCLDY    80  74  81 SE10      29.77R
COLUMBUS       CLEAR     81  70  69 SE7       29.76S
ALBION         PTCLDY    77  71  82 SE5       29.76R
OMAHA EPPLEY   PTCLDY    82  72  71 SE15      29.78R
OFFUTT AFB     CLEAR     80  77  91 SE9       29.78S
MILLARD        CLEAR     81  73  77 SE5       29.78R
LINCOLN        CLEAR     86  69  56 S12       29.77R HX  90
NEBRASKA CITY  PTCLDY    79  73  83 SE8       29.80R
BEATRICE       PTCLDY    84  71  63 S10       29.78R
FALLS CITY     CLEAR     81  73  76 SE7       29.80R

...NORTHERN KANSAS...

CITY           SKY/WX    TMP DP  RH WIND       PRES   REMARKS
GOODLAND       CLOUDY    75  62  64 NW9       29.82S
HILL CITY      PTCLDY    88  62  41 S13       29.75R
NORTON         MOCLDY    75  61  60 N13G18    29.77R
PHILLIPSBURG   CLEAR     84  64  51 SE8       29.73S
SMITH CENTER   CLEAR     82  64  54 SE13      29.76R
BELOIT         CLEAR     84  66  54 SE9       29.75R
HAYS           CLEAR     86  63  45 S16       29.78R
RUSSELL        CLEAR     85  62  46 S14       29.77R
CONCORDIA      PTCLDY    84  69  60 S15       29.77R
SALINA         PTCLDY    87  66  49 S18       29.79R
TOPEKA         PTCLDY    87  67  51 S10       29.83R HX  90



USA.gov is the U.S. government's official web portal to all federal, state and local government web resources and services.